User: anonymous   Login
Location: Unspecified
(0.0000°N, 0.0000°E)
Time: 07:06:57
(UTC+00:00)
Language:

Kosmos-2172 - Orbit

View from above orbital plane
View from above orbital plane
View from above satellite
View from above satellite

Ground track
Ground track

The orbit data is extracted from the following two-line orbital elements,

1 21796U 91081A   19083.18130829  .00000035  00000-0  20529-4 0  9997
2 21796  82.9569 326.3192 0049635 160.3142 311.9187 13.75491646371463
Epoch (UTC): 24 March 2019 04:21:05
Eccentricity: 0.0049635
inclination: 82.9569°
perigee height: 943 km
apogee height: 1016 km
right ascension of ascending node: 326.3192°
argument of perigee: 160.3142°
revolutions per day: 13.75491646
mean anomaly at epoch: 311.9187°
orbit number at epoch: 37146

The dashed part of the orbit path shows where the satellite is in the earth's shadow,  

DLR